CZ-3B DEB, 40186

Orbit data source: Space-Track

CZ-3B DEB, 40186 is space debris in HEO originally from a launch on Mon, 19 Dec 2011 UTC launched from the Xichang Space Center, China (XSC). Debris objects in space refer to the collection of defunct objects orbiting the Earth. Examples of debris include non-operational satellites, rocket bodies, and fragments generated from explosions, collisions, or faulty payload assembly.

Loading next visibility...
Identifier
40186, 2011-077K
Orbit
HEO
Country
Flag of CNCN / PRC
Related business
Manufacturer
CALT
Mission
Spacecraft
Bus & Motor
Unknown
Mass
Unknown
Launch date (UTC)
2011-12-19 (14 years ago)
Launch vehicle
Unknown
Launch site
Xichang Space Center, China (XSC)
Object type
Payload
Rocket body
Debris
Shape & HBR
Unknown shape, 0.2 m
Radar Cross Section
Medium (>0.1 m² and <1 m²)

Expand to show TLE details & history
Last TLE update: 3 days ago

TLE from 3 days ago
0 CZ-3B DEB
1 40186U 11077K   26122.16408219 -.00000074  00000-0  00000-0 0  9991
2 40186  25.7828  96.8703 7284391 233.7541  41.1194  1.88722732 98259
Epoch: 2026-05-02T03:56Z
TLE epoch observation values (Epoch: 2026-05-02T03:56:16.701Z)
Latitude
2.18762°
Longitude
-177.91516°
Altitude
18,590.983 km
Speed
4.185 km/s
True Right ascension
06h 44m 57s
True Declination
2° 11' 02"
Sunlit
Object was in daylight at epoch
Visualization orbit readout
Latitude
Unknown
Longitude
Unknown
Altitude
Unknown
Speed
Unknown
Apparent Right ascension
Unknown
Apparent Declination
Unknown
Sunlit
N/A
Visualization observer readout
Local Sidereal Time
03:27:53
Azimuth
Unknown
Elevation
Unknown
Doppler factor
Unknown
Orbital elements
Apogee altitude
41,436.669 km
Perigee altitude
1,134.208 km
Semi-major axis
27,663.576 km
Eccentricity
0.72844
Inclination
25.7828°
RAAN
96.8703°
Arg. of periapsis
233.7541°
True anomaly
131.35504°
Mean anomaly
41.1194°
Eccentric anomaly
82.4987°
Mean motion
0.47172 °/min
Orbital period
763.17 mins
BSTAR
0
Loading maneuver chart data...
Computing Atmospheric mass density...
Loading historical data...
Loading historical data...
Loading historical data...
Loading historical data...
Loading historical data...
Loading historical data...
Loading historical data...

Documentation

Showing up to 5 results
|